Saipan, MP

7:19 AM ChST on August 30, 2016 (GMT +1000)
Saipan International

Weather History for PGSN - January, 2013

Change the Weather History Date:

Saturday, January 26, 2013

  Actual Average Record
Temperature  
Mean Temperature 78 °F -  
Max Temperature 82 °F 82 °F 97 °F (2015)
Min Temperature 73 °F 74 °F 73 °F (1998)
Cooling Degree Days 12    
Growing Degree Days 28 (Base 50)    
Moisture  
Dew Point 64 °F    
Average Humidity 66    
Maximum Humidity 76    
Minimum Humidity 52    
Precipitation  
Precipitation 0.00 in - - ()
Sea Level Pressure  
Sea Level Pressure 29.99 in    
Wind  
Wind Speed 12 mph (NE)    
Max Wind Speed 20 mph    
Max Gust Speed 28 mph    
Visibility 10 miles    
Events      
Averages and records for this station are not official NWS values.
T = Trace of Precipitation, MM = Missing Value Source: NWS Daily Summary

Daily Weather History Graph

Daily Weather History Graph

Search for Another Location

Airport or City:

Trip Planner

Search our weather history database for the weather conditions in past years. The results will help you decide how hot, cold, wet, or windy it might be!

Date:

Astronomy

Jan. 26, 2013 Rise Set
Actual Time 6:46 AM ChST 6:12 PM ChST
Civil Twilight 6:24 AM ChST 6:34 PM ChST
Nautical Twilight 5:58 AM ChST 7:00 PM ChST
Astronomical Twilight 5:32 AM ChST 7:26 PM ChST
Moon 5:26 PM ChST (1/26) 5:40 AM ChST (1/26)
Length of Visible Light 12h 10m
Length of Day
11h 25m
Waxing Gibbous, 99% of the Moon is Illuminated
Jan 26
Waxing Gibbous
Jan 27
Full
Feb 3
Last Quarter
Feb 10
New
Feb 18
First Quarter

Hourly Weather History & Observations

Time (ChST) Temp. Heat Index Dew Point Humidity Pressure Visibility Wind Dir Wind Speed Gust Speed Precip Events Conditions
12:54 AM 73.9 °F - 64.9 °F 73% 29.99 in 10.0 mi NNE 10.4 mph - N/A   Mostly Cloudy
1:54 AM 73.9 °F - 64.9 °F 73% 29.99 in 10.0 mi NE 9.2 mph - N/A   Mostly Cloudy
2:54 AM 75.0 °F - 64.9 °F 71% 29.98 in 10.0 mi NE 10.4 mph - N/A   Mostly Cloudy
3:54 AM 73.9 °F - 64.9 °F 73% 29.98 in 10.0 mi ENE 13.8 mph - N/A   Mostly Cloudy
4:54 AM 73.9 °F - 64.9 °F 73% 29.99 in 10.0 mi ENE 12.7 mph - N/A   Mostly Cloudy
5:54 AM 73.9 °F - 64.9 °F 73% 30.00 in 10.0 mi NE 10.4 mph - N/A   Scattered Clouds
6:54 AM 73.0 °F - 64.9 °F 76% 30.02 in 10.0 mi NE 11.5 mph - N/A   Scattered Clouds
7:54 AM 77.0 °F - 64.9 °F 66% 30.03 in 10.0 mi NE 11.5 mph - N/A   Mostly Cloudy
8:54 AM 79.0 °F - 64.0 °F 60% 30.05 in 10.0 mi NE 13.8 mph - N/A   Mostly Cloudy
9:54 AM 81.0 °F 82.5 °F 64.0 °F 56% 30.04 in 10.0 mi NNE 13.8 mph - N/A   Mostly Cloudy
10:54 AM 82.0 °F 83.1 °F 63.0 °F 52% 30.03 in 10.0 mi NE 12.7 mph - N/A   Mostly Cloudy
11:54 AM 82.0 °F 83.8 °F 64.9 °F 56% 30.00 in 10.0 mi NE 15.0 mph - N/A   Mostly Cloudy
12:54 PM 82.0 °F 84.5 °F 66.9 °F 60% 29.97 in 10.0 mi NNE 17.3 mph 27.6 mph N/A   Mostly Cloudy
1:54 PM 82.0 °F 84.1 °F 66.0 °F 58% 29.96 in 10.0 mi NE 19.6 mph - N/A   Mostly Cloudy
2:54 PM 80.1 °F 81.9 °F 64.9 °F 60% 29.94 in 10.0 mi NNE 15.0 mph 25.3 mph N/A   Overcast
3:54 PM 79.0 °F - 64.9 °F 62% 29.94 in 10.0 mi NE 16.1 mph - N/A   Overcast
4:54 PM 79.0 °F - 64.0 °F 60% 29.95 in 10.0 mi NNE 16.1 mph - N/A   Scattered Clouds
5:54 PM 77.0 °F - 64.0 °F 64% 29.96 in 10.0 mi NE 15.0 mph - N/A   Partly Cloudy
6:54 PM 75.9 °F - 64.9 °F 69% 29.97 in 10.0 mi NE 15.0 mph - N/A   Partly Cloudy
7:54 PM 75.0 °F - 64.0 °F 69% 29.99 in 10.0 mi NNE 12.7 mph - N/A   Partly Cloudy
8:54 PM 75.0 °F - 64.0 °F 69% 30.01 in 10.0 mi NNE 12.7 mph - N/A   Partly Cloudy
9:54 PM 75.0 °F - 64.0 °F 69% 30.02 in 10.0 mi NNE 9.2 mph - N/A   Scattered Clouds
10:54 PM 73.9 °F - 63.0 °F 68% 30.03 in 10.0 mi NNE 9.2 mph - N/A   Scattered Clouds
11:54 PM 73.0 °F - 62.1 °F 68% 30.02 in 10.0 mi NNE 8.1 mph - N/A   Partly Cloudy